#datint,netname,site,siteID,timestamp,IntT,BattV,AirT2,AirT,AirT_Avg,AirT_Max,AirT_Min,RH_Avg,RH_Max,RH_Min,EA_Avg,Td_Avg,Td_Max,Td_Min,WindS_Smp,WindS_Avg,WindD_Avg,WindD_SD,WindS_Max,ETo,ETr,SoilT4,SoilT8,SoilVWC8,SolarW_Avg,wetstate_Avg,wetT_Avg,Precip_accum,Precip_WPG,Precip_TB
15min,AgWx,beryljct,423,07MAY2018:01:00:00,55.4,13.04,56.4,56.7,56.2,57.3,55.2,33,39,27,0.498,27.8,31.0,23.3,4.779,5.0,201,2.8,6.0,0.00031,0.00045,58.7,59.1,16,0,0,55.0,13.79,0.00,0.00
15min,AgWx,beryljct,423,07MAY2018:01:15:00,55.2,13.02,58.7,60.2,58.0,60.5,55.7,28,36,21,0.391,24.7,29.4,20.2,2.784,3.2,191,4.6,5.0,0.00017,0.00028,58.5,59.1,16,0,0,55.4,13.79,0.00,0.00
15min,AgWx,beryljct,423,07MAY2018:01:30:00,54.8,13.02,52.2,48.3,53.3,60.4,48.1,38,50,22,0.553,27.4,33.5,20.8,5.042,4.3,297,50,7.6,0.00022,0.00033,58.3,59.0,16,0,0,52.7,13.79,0.00,0.00
15min,AgWx,beryljct,423,07MAY2018:01:45:00,53.3,13.02,49.0,49.0,48.8,49.2,48.2,45,49,43,0.554,28.6,30.3,27.4,0.044,3.6,286,8.9,5.3,0.00009,0.00016,58.1,59.0,16,0,0,47.4,13.80,0.00,0.00
15min,AgWx,beryljct,423,07MAY2018:02:00:00,51.8,13.01,47.4,44.6,47.6,49.2,44.5,55,71,45,0.691,31.8,36.1,28.7,0.57,1.3,192,66,3.3,-0.00016,-0.00020,57.9,58.6,16,0,0,45.9,13.80,0.00,0.00
15min,AgWx,beryljct,423,07MAY2018:02:15:00,50.7,12.99,50.6,52.4,49.4,53.8,44.8,43,68,29,0.518,27.0,34.7,21.9,3.529,1.5,206,68,3.7,-0.00012,-0.00015,57.8,58.5,16,0,0,47.0,13.80,0.00,0.00
15min,AgWx,beryljct,423,07MAY2018:02:30:00,50.4,12.99,49.6,51.1,49.4,52.0,47.6,46,55,40,0.511,29.7,32.3,27.6,4.626,4.4,299,1.2,5.5,0.00015,0.00023,57.5,58.7,16,0,0,49.1,13.80,0.00,0.00
15min,AgWx,beryljct,423,07MAY2018:02:45:00,50.5,12.98,51.5,52.7,51.0,52.7,49.7,41,48,31,0.419,27.7,31.0,22.8,4.779,2.7,311,15,5.0,0.00003,0.00008,57.4,58.7,16,0,0,49.7,13.80,0.00,0.00
15min,AgWx,beryljct,423,07MAY2018:03:00:00,51.1,12.97,52.8,53.1,52.5,53.7,51.4,37,42,30,0.491,26.6,29.3,22.3,5.831,4.4,324,3.5,8.1,0.00022,0.00033,57.1,58.6,16,0,0,51.5,13.80,0.00,0.00
15min,AgWx,beryljct,423,07MAY2018:03:15:00,51.6,12.97,51.7,50.5,51.7,53.1,49.5,40,49,35,0.532,28.3,31.6,26.1,3.398,4.5,326,5.8,6.6,0.00020,0.00030,57.0,58.2,16,0,0,51.4,13.80,0.00,0.00
15min,AgWx,beryljct,423,07MAY2018:03:30:00,51.8,12.96,52.1,51.9,51.7,53.2,50.4,38,45,32,0.479,26.9,30.7,23.9,1.535,2.4,355,10,4.6,0.00001,0.00006,56.8,58.4,16,0,0,51.0,13.80,0.00,0.00
15min,AgWx,beryljct,423,07MAY2018:03:45:00,51.8,12.95,48.9,47.8,49.1,51.9,47.8,48,55,37,0.609,30.3,32.7,26.8,1.184,1.0,341,11,3.0,-0.00019,-0.00026,56.6,58.1,16,0,0,49.3,13.80,0.00,0.00
15min,AgWx,beryljct,423,07MAY2018:04:00:00,51.5,12.93,48.9,48.7,48.6,49.1,47.8,50,55,45,0.630,30.8,32.8,28.6,0,0.9,336,3.6,2.2,-0.00021,-0.00030,56.5,58.3,16,0,0,48.5,13.79,0.00,0.00
15min,AgWx,beryljct,423,07MAY2018:04:15:00,51.4,12.94,49.6,48.4,49.4,50.1,48.4,48,61,42,0.709,30.6,35.7,27.8,3.003,1.3,42,45,3.6,-0.00016,-0.00021,56.4,57.9,16,0,0,49.3,13.80,0.00,0.00
15min,AgWx,beryljct,423,07MAY2018:04:30:00,51.2,12.93,48.1,47.9,47.9,48.4,47.5,64,72,54,0.726,36.2,38.9,32.7,2.411,2.2,126,61,3.8,-0.00010,-0.00011,56.2,58.1,16,0,0,48.9,13.79,0.00,0.00
15min,AgWx,beryljct,423,07MAY2018:04:45:00,51.1,12.93,49.4,49.2,49.0,49.7,47.9,55,64,47,0.663,33.4,36.9,30.1,2.828,1.2,238,12,2.8,-0.00018,-0.00024,56.1,58.0,16,0,0,49.2,13.80,0.00,0.00
15min,AgWx,beryljct,423,07MAY2018:05:00:00,51.0,12.92,48.7,49.0,48.5,49.4,47.5,60,71,51,0.639,35.3,38.7,31.8,0,2.9,117,58,5.3,-0.00003,-0.00001,56.0,58.0,16,0,0,49.0,13.80,0.00,0.00
15min,AgWx,beryljct,423,07MAY2018:05:15:00,50.7,12.92,48.0,46.8,47.9,49.0,46.7,64,74,53,0.780,36.3,39.2,32.9,3.069,1.9,66,87,4.6,-0.00012,-0.00015,55.9,57.9,16,0,0,48.0,13.80,0.00,0.00
15min,AgWx,beryljct,423,07MAY2018:05:30:00,50.2,12.91,48.1,48.4,47.7,48.4,46.9,63,71,56,0.652,35.6,38.0,33.3,6.226,3.4,157,16,6.2,-0.00001,0.00001,55.8,57.8,16,0,0,47.5,13.80,0.00,0.00
15min,AgWx,beryljct,423,07MAY2018:05:45:00,50.1,12.9,49.3,49.2,48.9,49.2,48.5,53,57,49,0.587,32.3,34.2,30.9,5.327,5.4,171,5.7,6.6,0.00016,0.00024,55.7,57.7,16,0,0,49.0,13.80,0.00,0.00
15min,AgWx,beryljct,423,07MAY2018:06:00:00,50.2,12.9,50.6,50.6,50.2,51.0,49.3,46,49,42,0.570,30.0,31.1,28.9,1.293,3.9,173,6.0,6.2,0.00049,0.00086,55.6,57.6,16,0,0,49.6,13.80,0.00,0.00
15min,AgWx,beryljct,423,07MAY2018:06:15:00,50.1,12.9,49.9,49.2,49.8,50.5,48.9,49,55,42,0.614,31.3,33.5,28.2,3.42,3.0,182,4.1,4.4,0.00037,0.00065,55.5,57.6,16,0,0,48.9,13.80,0.00,0.00
15min,AgWx,beryljct,423,07MAY2018:06:30:00,49.7,12.89,48.9,50.0,48.5,50.0,47.5,53,59,46,0.573,32.3,34.1,29.9,3.529,3.1,187,1.6,3.8,0.00034,0.00059,55.4,57.5,16,1,0,47.7,13.80,0.00,0.00
15min,AgWx,beryljct,423,07MAY2018:06:45:00,49.6,12.9,50.6,52.3,50.1,52.3,49.0,48,54,38,0.506,31.0,33.7,27.4,2.653,3.6,225,38,4.9,0.00046,0.00079,55.2,57.4,16,4,0,49.6,13.80,0.00,0.00
15min,AgWx,beryljct,423,07MAY2018:07:00:00,49.8,12.9,49.4,48.4,49.6,52.7,47.8,48,54,38,0.610,30.8,32.3,27.5,3.771,2.8,322,27,5.1,0.00042,0.00068,55.1,57.3,16,13,0,49.8,13.80,0.00,0.00
15min,AgWx,beryljct,423,07MAY2018:07:15:00,49.8,12.91,49.7,50.9,49.1,50.9,47.1,51,62,42,0.572,31.5,35.6,28.7,0.833,1.2,315,0.1,3.4,0.00030,0.00043,55.0,57.3,16,25,0,49.5,13.80,0.00,0.00
15min,AgWx,beryljct,423,07MAY2018:07:30:00,50.2,12.93,52.9,51.7,52.6,54.7,50.8,45,58,32,0.656,31.3,36.7,25.1,2.543,2.5,209,38,3.9,0.00057,0.00084,54.9,57.2,16,39,0,53.2,13.80,0.00,0.00
15min,AgWx,beryljct,423,07MAY2018:07:45:00,50.9,12.96,52.2,52.4,51.8,52.5,50.9,51,65,39,0.697,34.3,40.1,28.2,2.696,2.5,189,10,3.3,0.00060,0.00084,54.8,57.1,16,53,0,53.9,13.79,0.00,0.00
15min,AgWx,beryljct,423,07MAY2018:08:00:00,51.5,13,52.8,53.3,52.5,53.5,51.8,56,61,50,0.794,37.4,39.2,34.7,2.499,2.1,197,12,3.0,0.00067,0.00087,54.7,57.1,16,75,0,55.5,13.79,0.00,0.00
15min,AgWx,beryljct,423,07MAY2018:08:15:00,52.2,13.03,52.1,51.6,52.0,53.5,51.1,66,75,48,0.909,40.6,44.1,34.0,2.499,0.9,173,19,2.5,0.00079,0.00090,54.6,57.0,16,119,0,57.4,13.79,0.00,0.00
15min,AgWx,beryljct,423,07MAY2018:08:30:00,52.8,13.14,52.4,51.8,52.1,52.8,51.6,64,73,56,0.817,40.1,43.4,37.6,2.389,3.6,50,11,8.6,0.00113,0.00142,54.6,56.9,16,159,0,58.0,13.79,0.00,0.00
15min,AgWx,beryljct,423,07MAY2018:08:45:00,53.5,13.22,53.0,53.5,52.6,53.5,51.8,57,64,53,0.739,37.7,39.9,36.0,0.351,2.4,50,13,4.5,0.00129,0.00155,54.6,56.9,16,193,0,60.4,13.79,0.00,0.00
15min,AgWx,beryljct,423,07MAY2018:09:00:00,54.5,13.34,54.7,54.8,54.3,54.9,53.5,51,57,45,0.729,36.8,39.3,33.8,1.6,1.9,357,24,3.8,0.00153,0.00180,54.5,56.8,16,237,0,64.9,13.79,0.00,0.00
15min,AgWx,beryljct,423,07MAY2018:09:15:00,55.5,13.42,55.6,55.8,55.3,55.8,54.8,49,57,44,0.698,36.5,40.4,33.6,1.578,2.1,338,6.1,2.9,0.00149,0.00178,54.6,56.7,16,214,0,64.8,13.79,0.00,0.00
15min,AgWx,beryljct,423,07MAY2018:09:30:00,56.9,13.83,57.1,58.0,56.8,58.0,55.8,44,51,39,0.697,34.9,39.4,32.4,3.047,2.4,4.0,17,3.9,0.00233,0.00273,54.6,56.7,16,369,0,71.1,13.79,0.00,0.00
15min,AgWx,beryljct,423,07MAY2018:09:45:00,59.2,13.77,59.7,60.0,59.4,60.1,58.0,38,44,32,0.628,33.6,37.3,30.2,1.929,3.4,11,11,5.2,0.00257,0.00313,54.6,56.6,15,367,0,75.1,13.79,0.00,0.00
15min,AgWx,beryljct,423,07MAY2018:10:00:00,60.5,13.86,59.9,60.5,59.8,60.5,59.5,40,47,33,0.662,35.5,39.6,30.9,0,1.6,66,20,2.7,0.00225,0.00259,54.7,56.6,15,336,0,74.8,13.78,0.00,0.00
15min,AgWx,beryljct,423,07MAY2018:10:15:00,61.8,13.74,61.2,61.3,61.0,61.8,60.5,40,44,35,0.803,36.2,39.3,33.8,0.702,0.6,20,18,1.8,0.00190,0.00211,54.8,56.5,15,281,0,77.8,13.78,0.00,0.00
15min,AgWx,beryljct,423,07MAY2018:10:30:00,62.6,13.8,61.7,62.0,61.5,62.1,61.1,43,51,35,0.724,38.8,43.0,33.7,3.376,2.1,354,19,4.1,0.00197,0.00234,54.9,56.5,15,262,0,72.7,13.78,0.00,0.00
15min,AgWx,beryljct,423,07MAY2018:10:45:00,63.4,14.24,62.5,62.6,62.3,62.7,61.9,37,44,32,0.683,35.6,39.7,32.0,0,1.5,348,5.2,3.8,0.00241,0.00277,55.1,56.4,15,344,0,75.6,13.78,0.00,0.00
15min,AgWx,beryljct,423,07MAY2018:11:00:00,64.6,14.21,63.6,63.6,63.4,64.4,62.6,33,37,27,0.674,33.9,37.0,28.9,0.307,0.0,355,0.0,0.5,0.00243,0.00260,55.2,56.4,15,372,0,86.2,13.78,0.00,0.00
15min,AgWx,beryljct,423,07MAY2018:11:15:00,66.2,14.14,64.3,65.7,64.1,65.9,63.4,37,44,30,0.750,36.9,41.8,32.2,3.529,2.3,134,56,3.6,0.00388,0.00444,55.4,56.4,15,591,0,91.0,13.77,0.00,0.00
15min,AgWx,beryljct,423,07MAY2018:11:30:00,69.2,14.14,66.6,67.5,66.6,67.5,65.3,31,38,24,0.772,35.2,40.4,29.3,0.57,1.7,139,12,3.8,0.00536,0.00597,55.6,56.3,15,826,0,108.3,13.77,0.00,0.00
15min,AgWx,beryljct,423,07MAY2018:11:45:00,71.3,14.07,67.8,68.2,67.8,68.5,67.3,37,45,30,0.801,40.4,46.1,34.8,3.244,2.7,92,19,4.4,0.00503,0.00571,55.8,56.3,15,753,0,101.9,13.76,0.00,0.00
15min,AgWx,beryljct,423,07MAY2018:12:00:00,73.7,13.98,70.4,71.2,70.3,71.3,68.1,33,42,27,0.797,40.1,46.0,35.2,5.634,3.6,95,15,5.6,0.00629,0.00721,56.0,56.3,15,929,0,107.8,13.76,0.00,0.00
15min,AgWx,beryljct,423,07MAY2018:12:15:00,74.9,13.98,72.5,75.2,72.3,75.2,71.0,31,43,18,0.694,39.6,47.8,28.8,9.45,6.9,115,46,12.7,0.00576,0.00710,56.4,56.3,15,767,0,95.0,13.76,0.00,0.00
15min,AgWx,beryljct,423,07MAY2018:12:30:00,76.4,13.56,75.7,76.9,75.7,76.9,74.8,19,29,14,0.571,30.1,40.1,22.4,13.75,12.5,174,12,17.0,0.00783,0.01026,56.8,56.4,15,974,0,95.4,13.77,0.00,0.00
15min,AgWx,beryljct,423,07MAY2018:12:45:00,78.2,13.52,77.2,78.5,77.2,79.0,76.3,17,22,14,0.494,29.1,36.6,23.5,13.53,10.8,180,15,15.7,0.00887,0.01123,57.2,56.4,16,1140,0,101.5,13.76,0.00,0.00
15min,AgWx,beryljct,423,07MAY2018:13:00:00,79.3,13.52,76.6,76.9,76.9,78.5,76.0,17,21,13,0.482,27.9,32.9,22.3,3.639,11.0,197,21,18.6,0.00668,0.00896,57.6,56.4,16,730,0,93.1,13.76,0.00,0.00
15min,AgWx,beryljct,423,07MAY2018:13:15:00,79.8,13.54,77.1,77.3,77.2,78.3,76.6,16,20,11,0.524,27.9,33.1,19.1,14.78,10.4,174,22,15.8,0.00695,0.00914,58.1,56.5,16,799,0,95.6,13.76,0.00,0.00
15min,AgWx,beryljct,423,07MAY2018:13:30:00,79.9,13.54,77.0,77.3,77.2,78.2,75.7,18,23,14,0.568,30.1,36.0,25.5,12.25,12.9,211,16,18.1,0.00755,0.01009,58.6,56.5,16,873,0,93.9,13.76,0.00,0.00
15min,AgWx,beryljct,423,07MAY2018:13:45:00,80.2,13.51,77.1,76.7,77.2,78.5,76.4,18,23,13,0.517,30.0,37.4,21.8,12.14,10.6,220,15,18.1,0.00726,0.00949,59.0,56.6,16,867,0,95.0,13.76,0.00,0.00
15min,AgWx,beryljct,423,07MAY2018:14:00:00,80.4,13.51,77.1,77.4,77.3,78.4,76.6,17,22,13,0.574,29.2,34.9,22.4,12.47,12.2,210,16,19.0,0.00769,0.01016,59.5,56.7,16,917,0,94.2,13.76,0.00,0.00
15min,AgWx,beryljct,423,07MAY2018:14:15:00,80.1,13.54,76.2,76.0,76.4,77.3,75.9,17,23,14,0.517,28.1,36.3,22.7,15.74,12.3,212,13,18.6,0.00620,0.00858,60.0,56.8,16,627,0,89.9,13.76,0.00,0.00
15min,AgWx,beryljct,423,07MAY2018:14:30:00,79.4,13.54,75.9,76.8,76.0,76.8,75.0,17,21,14,0.548,27.8,33.3,24.0,12.78,13.6,206,9.3,19.2,0.00659,0.00914,60.4,57.0,16,698,0,88.5,13.76,0.00,0.00
15min,AgWx,beryljct,423,07MAY2018:14:45:00,79.6,13.52,76.9,75.6,77.1,78.6,75.6,16,21,12,0.456,27.4,35.3,20.2,10.79,11.5,205,12,18.6,0.00630,0.00863,60.9,57.1,16,654,0,90.9,13.76,0.00,0.00
15min,AgWx,beryljct,423,07MAY2018:15:00:00,79.6,13.52,77.7,78.2,77.6,78.9,75.1,16,22,12,0.447,27.1,34.1,20.3,4.538,9.1,203,22,14.0,0.00720,0.00928,61.2,57.3,16,900,0,92.9,13.76,0.00,0.00
15min,AgWx,beryljct,423,07MAY2018:15:15:00,80.7,13.49,78.2,78.5,78.3,79.3,77.0,15,20,12,0.446,27.5,34.0,21.9,11.84,10.2,181,21,16.3,0.00722,0.00946,61.6,57.4,16,869,0,94.4,13.76,0.00,0.00
15min,AgWx,beryljct,423,07MAY2018:15:30:00,81.8,13.44,78.7,78.7,78.9,79.7,78.2,15,21,12,0.580,27.8,36.2,22.0,10.48,10.5,193,22,17.5,0.00817,0.01054,61.9,57.6,16,998,0,97.6,13.76,0.00,0.00
15min,AgWx,beryljct,423,07MAY2018:15:45:00,81.9,13.45,77.7,77.2,77.9,78.7,77.2,18,24,13,0.565,30.5,37.8,23.8,9.97,10.0,221,11,16.1,0.00597,0.00805,62.2,57.8,16,672,0,90.3,13.76,0.00,0.00
15min,AgWx,beryljct,423,07MAY2018:16:00:00,81.7,13.46,78.6,79.3,78.6,79.4,77.3,17,24,11,0.553,29.9,37.9,19.7,8.51,7.5,204,32,12.7,0.00650,0.00828,62.4,58.0,16,811,0,92.4,13.76,0.00,0.00
15min,AgWx,beryljct,423,07MAY2018:16:15:00,82.2,13.44,79.3,79.5,79.4,80.1,78.5,15,19,11,0.490,27.2,33.0,20.7,13.07,9.7,192,15,18.0,0.00677,0.00894,62.6,58.1,16,793,0,92.4,13.76,0.00,0.00
15min,AgWx,beryljct,423,07MAY2018:16:30:00,82.5,13.52,78.5,78.4,78.8,79.6,78.2,16,20,13,0.573,28.7,33.8,23.0,11.33,12.2,212,14,18.3,0.00682,0.00932,62.8,58.3,16,756,0,88.5,13.76,0.00,0.00
15min,AgWx,beryljct,423,07MAY2018:16:45:00,82.5,13.43,79.0,79.5,79.1,80.1,78.1,15,20,12,0.514,27.9,33.5,22.0,11.86,9.2,197,18,15.8,0.00624,0.00831,62.9,58.5,16,726,0,89.3,13.76,0.00,0.00
15min,AgWx,beryljct,423,07MAY2018:17:00:00,82.6,13.41,79.0,79.3,79.2,79.6,78.6,15,19,12,0.546,27.0,32.7,22.8,9.47,9.5,195,10,17.9,0.00602,0.00812,63.1,58.6,16,683,0,88.3,13.76,0.00,0.00
15min,AgWx,beryljct,423,07MAY2018:17:15:00,82.8,13.41,79.0,79.2,79.1,79.4,78.8,15,18,12,0.489,26.8,32.1,21.4,4.56,9.0,189,15,13.3,0.00557,0.00759,63.3,58.8,16,626,0,87.1,13.76,0.00,0.00
15min,AgWx,beryljct,423,07MAY2018:17:30:00,82.8,13.41,79.0,78.9,79.2,79.7,78.6,15,20,12,0.483,27.5,33.9,21.2,11.16,9.1,197,14,14.5,0.00532,0.00731,63.6,58.9,16,588,0,86.5,13.76,0.00,0.00
15min,AgWx,beryljct,423,07MAY2018:17:45:00,82.6,13.47,79.0,78.8,79.1,79.9,78.6,15,18,11,0.565,27.5,32.1,20.4,7.717,8.7,186,22,13.8,0.00494,0.00686,64.0,59.1,16,540,0,84.8,13.76,0.00,0.00
15min,AgWx,beryljct,423,07MAY2018:18:00:00,82.2,13.4,78.6,78.7,78.7,79.7,78.1,15,18,10,0.433,26.4,32.1,18.1,13.11,10.3,192,28,14.3,0.00486,0.00699,64.3,59.2,16,490,0,83.1,13.76,0.00,0.00
15min,AgWx,beryljct,423,07MAY2018:18:15:00,81.8,13.44,78.7,78.0,78.8,79.4,78.0,15,19,10,0.514,26.4,33.1,17.8,10.19,8.9,183,21,14.5,0.00429,0.00620,64.6,59.4,16,438,0,82.1,13.76,0.00,0.00
15min,AgWx,beryljct,423,07MAY2018:18:30:00,81.3,13.45,78.1,78.4,78.1,78.9,77.5,16,21,12,0.546,28.3,35.0,20.8,5.722,8.0,174,17,13.8,0.00374,0.00545,64.8,59.5,16,385,0,80.7,13.76,0.00,0.00
15min,AgWx,beryljct,423,07MAY2018:18:45:00,80.8,13.46,78.3,78.1,78.3,78.9,77.8,15,19,13,0.489,27.2,32.0,22.8,8.68,9.4,193,14,13.7,0.00366,0.00558,65.1,59.7,16,332,0,79.4,13.76,0.00,0.00
15min,AgWx,beryljct,423,07MAY2018:19:00:00,80.3,13.38,77.8,77.7,77.8,78.2,77.5,15,18,13,0.512,25.9,31.3,22.5,9.4,9.5,177,11,15.7,0.00334,0.00525,65.3,59.8,16,280,0,77.8,13.76,0.00,0.00
15min,AgWx,beryljct,423,07MAY2018:19:15:00,79.5,13.28,77.3,77.2,77.4,78.0,76.6,15,19,13,0.468,26.2,31.1,22.7,10.63,10.6,188,8.3,16.4,0.00316,0.00519,65.5,59.9,16,224,0,76.4,13.76,0.00,0.00
15min,AgWx,beryljct,423,07MAY2018:19:30:00,78.8,13.25,76.9,76.5,76.9,77.5,76.3,14,16,12,0.423,23.9,27.2,21.7,12.61,12.1,183,8.4,15.7,0.00318,0.00543,65.6,60.1,16,178,0,75.8,13.76,0.00,0.00
15min,AgWx,beryljct,423,07MAY2018:19:45:00,77.8,13.24,75.8,75.4,75.9,76.8,75.0,14,17,13,0.443,24.0,26.8,21.1,11.44,10.5,184,7.9,14.3,0.00160,0.00207,65.6,60.2,16,122,0,74.6,13.77,0.00,0.00
15min,AgWx,beryljct,423,07MAY2018:20:00:00,76.5,13.21,74.7,74.0,74.9,75.6,74.0,15,16,14,0.444,23.7,26.0,21.9,9.84,10.5,188,6.7,14.4,0.00147,0.00190,65.5,60.3,16,76,0,73.0,13.77,0.00,0.00
15min,AgWx,beryljct,423,07MAY2018:20:15:00,75.0,13.21,72.4,71.3,72.7,74.0,71.3,16,18,15,0.459,24.2,25.6,23.0,7.453,8.6,188,5.1,10.7,0.00117,0.00156,65.4,60.4,16,50,0,70.6,13.77,0.00,0.00
15min,AgWx,beryljct,423,07MAY2018:20:30:00,73.0,13.17,69.2,68.2,69.6,71.3,68.2,19,20,17,0.451,25.2,27.2,23.6,6.204,6.8,193,5.5,8.6,0.00081,0.00113,65.3,60.5,16,19,0,67.0,13.77,0.00,0.00
15min,AgWx,beryljct,423,07MAY2018:20:45:00,70.5,13.16,66.9,66.2,67.0,68.2,66.2,19,21,17,0.449,23.8,25.7,20.8,5.809,6.2,183,5.1,7.3,0.00067,0.00095,65.1,60.6,16,4,0,64.2,13.77,0.00,0.00
15min,AgWx,beryljct,423,07MAY2018:21:00:00,68.1,13.15,65.7,64.6,65.7,66.6,64.5,21,23,18,0.410,24.2,26.3,21.6,6.182,6.1,184,8.4,7.6,0.00061,0.00087,64.9,60.7,16,0,0,62.8,13.77,0.00,0.00
15min,AgWx,beryljct,423,07MAY2018:21:15:00,66.2,13.13,63.8,62.9,63.9,65.0,62.9,20,22,18,0.388,22.0,24.4,20.8,6.226,6.2,177,3.1,7.1,0.00061,0.00086,64.7,60.8,16,0,0,61.2,13.77,0.00,0.00
15min,AgWx,beryljct,423,07MAY2018:21:30:00,64.2,13.13,60.3,60.8,60.4,62.9,58.5,26,32,19,0.442,25.2,29.4,20.5,7.541,6.4,191,6.4,8.1,0.00054,0.00074,64.4,60.9,16,0,0,58.4,13.78,0.00,0.00
15min,AgWx,beryljct,423,07MAY2018:21:45:00,63.0,13.12,63.3,62.3,63.0,64.0,61.1,23,25,22,0.454,24.7,26.0,23.4,6.796,7.1,193,4.3,8.2,0.00066,0.00089,64.2,60.6,16,0,0,60.3,13.78,0.00,0.00
15min,AgWx,beryljct,423,07MAY2018:22:00:00,62.2,13.11,61.1,62.2,61.0,62.3,59.7,25,27,22,0.451,24.7,26.2,22.2,7.717,6.8,186,4.5,8.6,0.00059,0.00080,63.9,60.9,16,0,0,58.8,13.78,0.00,0.00
15min,AgWx,beryljct,423,07MAY2018:22:15:00,62.1,13.11,64.5,65.0,64.0,65.0,62.2,21,23,19,0.405,23.4,24.9,22.0,9.51,8.2,192,4.3,9.7,0.00078,0.00104,63.6,61.0,16,0,0,61.5,13.78,0.00,0.00
15min,AgWx,beryljct,423,07MAY2018:22:30:00,63.0,13.11,66.6,66.5,66.3,67.3,65.1,19,20,17,0.420,22.3,23.3,20.8,7.717,9.5,198,5.5,12.3,0.00096,0.00125,63.3,61.0,16,0,0,63.7,13.78,0.00,0.00
15min,AgWx,beryljct,423,07MAY2018:22:45:00,63.5,13.1,64.0,62.3,64.3,66.5,62.3,21,24,19,0.467,23.7,25.7,22.5,6.27,7.2,197,4.7,9.3,0.00070,0.00096,63.1,60.7,16,0,0,61.7,13.78,0.00,0.00
15min,AgWx,beryljct,423,07MAY2018:23:00:00,62.6,13.08,59.2,57.2,59.6,62.2,57.0,26,31,22,0.410,24.5,27.4,21.4,6.862,6.3,179,9.4,7.5,0.00052,0.00072,62.8,61.0,16,0,0,57.7,13.78,0.00,0.00
15min,AgWx,beryljct,423,07MAY2018:23:15:00,60.6,13.07,56.5,56.2,56.5,57.3,55.8,27,28,25,0.430,22.5,23.6,21.4,5.941,6.3,177,5.5,7.2,0.00047,0.00065,62.6,61.0,16,0,0,54.8,13.78,0.00,0.00
15min,AgWx,beryljct,423,07MAY2018:23:30:00,59.0,13.07,56.2,55.3,56.1,56.5,55.3,28,29,26,0.410,23.1,24.2,21.7,4.275,5.8,181,5.1,7.2,0.00042,0.00059,62.3,61.0,16,0,0,54.4,13.78,0.00,0.00
15min,AgWx,beryljct,423,07MAY2018:23:45:00,57.7,13.06,57.5,62.4,56.6,62.4,53.5,29,36,20,0.382,24.6,27.5,20.2,2.981,2.5,298,73,6.1,0.00006,0.00013,62.0,60.9,16,0,0,53.2,13.78,0.00,0.00
15min,AgWx,beryljct,423,08MAY2018:00:00:00,57.0,13.05,55.3,55.0,55.9,62.3,51.9,33,44,19,0.474,26.5,31.2,20.1,0.263,2.7,67,49,5.0,0.00008,0.00016,61.8,60.9,16,0,0,53.4,13.78,0.00,0.00
15min,AgWx,beryljct,423,08MAY2018:00:15:00,55.7,13.05,54.2,54.5,54.1,55.8,52.5,36,44,29,0.553,27.3,31.4,23.7,3.771,1.8,193,23,5.7,-0.00007,-0.00006,61.5,60.9,16,0,0,49.7,13.78,0.00,0.00
15min,AgWx,beryljct,423,08MAY2018:00:30:00,54.7,13.03,53.2,52.2,53.1,56.5,48.6,38,55,25,0.494,27.6,33.3,20.5,0,1.6,235,72,4.4,-0.00009,-0.00009,61.3,60.5,16,0,0,50.2,13.78,0.00,0.00
15min,AgWx,beryljct,423,08MAY2018:00:45:00,53.4,13.03,50.4,50.8,50.3,52.5,48.3,45,60,29,0.498,29.7,35.2,20.7,2.959,1.6,154,32,3.5,-0.00012,-0.00014,61.0,60.8,16,0,0,46.8,13.79,0.00,0.00
15min,AgWx,bigpiney,439,07MAY2018:01:00:00,50.9,12.8,43.8,43.8,44.4,45.1,43.8,56,58,55,0.558,29.8,30.5,29.4,7.936,8.3,237,5.2,9.3,0.00031,0.00039,55.4,48.9,54,0,0,0.0,.,0.00,0.00
15min,AgWx,bigpiney,439,07MAY2018:01:15:00,50.1,12.81,44.8,44.4,43.9,44.4,43.7,57,58,56,0.566,29.7,30.2,29.3,6.971,8.1,243,5.1,9.1,0.00030,0.00037,55.0,48.9,54,0,0,0.0,.,0.00,0.00
15min,AgWx,bigpiney,439,07MAY2018:01:30:00,49.4,12.79,42.4,43.3,44.1,44.5,43.3,57,59,56,0.544,30.0,30.4,29.0,2.631,5.6,261,27,7.7,0.00024,0.00031,54.7,48.8,54,0,0,0.0,.,0.00,0.00
15min,AgWx,bigpiney,439,07MAY2018:01:45:00,48.7,12.78,37.9,37.7,39.5,43.1,37.6,65,69,57,0.526,28.8,30.6,27.8,3.705,4.1,57,15,6.6,0.00013,0.00018,54.3,48.8,54,0,0,0.0,.,0.00,0.00
15min,AgWx,bigpiney,439,07MAY2018:02:00:00,47.5,12.77,37.9,37.6,37.7,38.2,37.2,72,75,69,0.540,29.5,30.2,28.3,4.165,2.8,90,11,4.2,0.00006,0.00009,53.9,48.7,54,0,0,0.0,.,0.00,0.00
15min,AgWx,bigpiney,439,07MAY2018:02:15:00,46.2,12.76,38.0,38.1,37.5,39.0,36.1,67,72,60,0.505,27.5,29.0,26.2,1.841,3.1,128,19,4.3,0.00009,0.00013,53.6,48.7,54,0,0,0.0,.,0.00,0.00
15min,AgWx,bigpiney,439,07MAY2018:02:30:00,45.1,12.76,38.6,38.6,39.0,40.2,37.8,64,73,58,0.575,27.8,30.5,26.5,2.433,1.6,192,35,3.6,0.00003,0.00006,53.3,48.6,54,0,0,0.0,.,0.00,0.00
15min,AgWx,bigpiney,439,07MAY2018:02:45:00,44.3,12.74,41.8,40.2,39.0,40.2,37.5,67,76,61,0.521,29.0,31.1,27.7,3.902,3.6,259,11,4.2,0.00010,0.00015,52.9,48.6,54,0,0,0.0,.,0.00,0.00
15min,AgWx,bigpiney,439,07MAY2018:03:00:00,43.8,12.74,42.0,40.9,40.8,42.4,39.4,59,66,53,0.513,27.5,28.9,26.3,4.231,3.7,233,7.9,5.1,0.00015,0.00021,52.6,48.5,54,0,0,0.0,.,0.00,0.00
15min,AgWx,bigpiney,439,07MAY2018:03:15:00,43.5,12.72,37.9,37.7,40.0,42.5,37.5,62,72,48,0.524,27.9,29.8,24.1,5.217,4.3,225,18,5.9,0.00015,0.00021,52.3,48.4,54,0,0,0.0,.,0.00,0.00
15min,AgWx,bigpiney,439,07MAY2018:03:30:00,43.2,12.71,36.8,37.1,37.4,38.0,36.9,73,78,67,0.559,29.5,31.1,28.0,0,1.3,289,67,5.6,0.00000,0.00001,51.9,48.4,54,0,0,0.0,.,0.00,0.00
15min,AgWx,bigpiney,439,07MAY2018:03:45:00,42.7,12.7,38.3,37.3,36.7,37.3,36.3,75,80,67,0.502,29.4,30.8,27.2,1.052,0.5,2.0,72,3.4,-0.00004,-0.00006,51.7,48.4,54,0,0,0.0,.,0.00,0.00
15min,AgWx,bigpiney,439,07MAY2018:04:00:00,42.1,12.7,37.9,36.6,36.6,37.6,36.0,71,79,63,0.474,27.9,30.4,25.8,1.469,1.2,249,21,2.2,0.00000,0.00001,51.3,48.3,54,0,0,0.0,.,0.00,0.00
15min,AgWx,bigpiney,439,07MAY2018:04:15:00,41.5,12.68,40.0,38.5,36.8,38.5,35.6,69,75,61,0.484,27.4,29.1,25.6,2.455,1.7,261,11,4.4,0.00003,0.00005,51.0,48.2,54,0,0,0.0,.,0.00,0.00
15min,AgWx,bigpiney,439,07MAY2018:04:30:00,41.1,12.68,36.9,38.5,37.4,39.4,36.4,66,71,58,0.507,27.0,28.1,25.9,2.894,2.1,283,15,3.2,0.00005,0.00008,50.7,48.2,54,0,0,0.0,.,0.00,0.00
15min,AgWx,bigpiney,439,07MAY2018:04:45:00,40.8,12.67,38.7,38.3,39.1,40.4,37.6,59,69,53,0.474,25.8,28.6,24.4,0,1.6,290,17,3.5,0.00005,0.00009,50.4,48.1,54,0,0,0.0,.,0.00,0.00
15min,AgWx,bigpiney,439,07MAY2018:05:00:00,40.5,12.66,37.6,39.5,38.9,39.5,37.2,60,77,55,0.476,26.1,31.1,24.5,0,0.6,281,14,2.5,-0.00002,-0.00003,50.2,48.1,54,0,0,0.0,.,0.00,0.00
15min,AgWx,bigpiney,439,07MAY2018:05:15:00,40.2,12.65,35.7,36.4,36.9,39.3,35.8,69,76,61,0.490,27.6,29.6,25.4,2.938,3.2,221,5.1,5.2,0.00008,0.00012,49.9,48.0,54,0,0,0.0,.,0.00,0.00
15min,AgWx,bigpiney,439,07MAY2018:05:30:00,39.8,12.62,34.9,35.2,36.7,39.2,35.0,68,77,57,0.532,27.1,28.8,25.4,2.565,3.3,228,7.8,4.4,0.00009,0.00013,49.6,47.9,54,0,0,0.0,.,0.00,0.00
15min,AgWx,bigpiney,439,07MAY2018:05:45:00,39.4,12.63,33.6,33.8,34.0,35.2,33.3,75,78,74,0.497,27.1,28.6,26.5,4.231,4.1,222,5.9,5.9,0.00007,0.00010,49.3,47.8,54,0,0,0.0,.,0.00,0.00
15min,AgWx,bigpiney,439,07MAY2018:06:00:00,39.0,12.62,36.0,35.1,34.3,35.1,33.6,74,77,67,0.465,26.8,27.9,25.3,2.696,3.1,255,19,5.0,0.00006,0.00008,49.0,47.8,54,1,0,0.0,.,0.00,0.00
15min,AgWx,bigpiney,439,07MAY2018:06:15:00,38.7,12.61,32.3,32.1,33.9,35.3,31.9,74,79,66,0.461,26.4,27.6,25.0,0,1.5,284,40,2.8,0.00002,0.00004,48.8,47.7,54,5,0,0.0,.,0.00,0.00
15min,AgWx,bigpiney,439,07MAY2018:06:30:00,38.4,12.63,33.4,33.1,32.7,33.1,32.1,74,78,70,0.458,25.3,26.4,24.4,3.486,2.2,314,38,4.1,-0.00018,-0.00013,48.5,47.6,54,16,0,0.0,.,0.00,0.00
15min,AgWx,bigpiney,439,07MAY2018:06:45:00,38.2,12.67,31.8,32.0,32.7,33.2,31.9,78,84,72,0.499,26.6,28.5,25.1,4.56,3.7,220,34,4.7,0.00003,0.00012,48.3,47.6,54,28,0,0.0,.,0.00,0.00
15min,AgWx,bigpiney,439,07MAY2018:07:00:00,38.0,12.72,35.0,33.6,32.5,33.6,31.8,82,83,79,0.538,27.5,28.9,26.7,0.855,4.3,218,22,6.2,0.00011,0.00020,48.0,47.5,54,58,0,0.0,.,0.00,0.00
15min,AgWx,bigpiney,439,07MAY2018:07:15:00,38.4,12.73,37.4,36.9,35.8,36.9,33.8,77,83,73,0.559,29.4,30.4,28.3,3.266,2.3,228,14,4.4,0.00021,0.00029,47.8,47.4,54,96,0,0.0,.,0.00,0.00
15min,AgWx,bigpiney,439,07MAY2018:07:30:00,39.3,12.84,39.2,38.6,38.2,39.1,36.9,77,81,75,0.630,31.7,33.6,29.8,0.592,0.9,274,36,3.6,0.00040,0.00046,47.6,47.4,54,172,0,0.0,.,0.00,0.00
15min,AgWx,bigpiney,439,07MAY2018:07:45:00,40.8,12.91,39.8,39.2,38.7,39.2,38.2,74,80,72,0.582,31.1,33.0,30.2,1.293,1.7,11,14,3.0,0.00067,0.00077,47.3,47.3,54,221,0,0.0,.,0.00,0.00
15min,AgWx,bigpiney,439,07MAY2018:08:00:00,42.3,12.98,40.6,40.1,40.0,40.6,39.2,71,74,69,0.607,31.3,32.8,30.1,2.762,1.5,76,22,3.7,0.00068,0.00078,47.1,47.3,54,169,0,0.0,.,0.00,0.00
15min,AgWx,bigpiney,439,07MAY2018:08:15:00,43.4,13.13,42.6,41.9,40.8,41.9,39.9,72,75,69,0.658,32.5,33.9,31.0,1.184,2.0,104,19,3.6,0.00098,0.00113,46.9,47.2,54,246,0,0.0,.,0.00,0.00
15min,AgWx,bigpiney,439,07MAY2018:08:30:00,44.5,13.27,43.6,43.5,42.7,43.5,42.0,73,76,71,0.713,34.7,35.9,33.3,3.508,2.7,106,19,3.9,0.00110,0.00127,46.7,47.2,54,249,0,0.0,.,0.00,0.00
15min,AgWx,bigpiney,439,07MAY2018:08:45:00,45.4,13.37,45.5,44.9,44.1,44.9,43.3,70,74,65,0.661,34.8,35.8,33.6,1.754,3.5,132,11,5.0,0.00122,0.00144,46.5,47.1,54,251,0,0.0,.,0.00,0.00